GW4457 Weather Reports


Display with metric or nautical units.
time (UTC)temp
F
wind
direction
speed
MPH
gust
MPH
rain 1hr
in
rain 24hr
in
rain mn
in
humidity
%
barometer
mb
20260502190535 85 86 16.0 26.0 0.00 0.00 0.00 66 1018.9
20260502190032 85 143 9.0 24.0 0.00 0.00 0.00 68 1018.9
20260502185526 85 104 14.0 19.0 0.00 0.00 0.00 68 1019.1
20260502185024 85 94 13.0 19.0 0.00 0.00 0.00 66 1019.0
20260502184519 84 89 14.0 18.0 0.00 0.00 0.00 70 1019.1
20260502184016 85 133 17.0 19.0 0.00 0.00 0.00 66 1019.2
20260502183512 84 98 18.0 22.0 0.00 0.00 0.00 68 1019.3
20260502183008 84 103 18.0 24.0 0.00 0.00 0.00 68 1019.2
20260502182503 84 119 12.0 24.0 0.00 0.00 0.00 71 1019.5
20260502181959 85 251 9.0 21.0 0.00 0.00 0.00 68 1019.4
20260502181458 86 83 16.0 22.0 0.00 0.00 0.00 67 1019.6
20260502180956 86 81 13.0 21.0 0.00 0.00 0.00 66 1019.7
20260502180453 86 113 12.0 21.0 0.00 0.00 0.00 65 1019.8
20260502170412 85 159 15.0 19.0 0.00 0.00 0.00 71 1020.3
20260502163855 86 106 19.0 23.0 0.00 0.00 0.00 68 1020.5
20260502163351 86 133 17.0 21.0 0.00 0.00 0.00 67 1020.6
20260502162849 86 54 15.0 25.0 0.00 0.00 0.00 67 1020.4
20260502162345 86 79 8.0 21.0 0.00 0.00 0.00 69 1020.9
20260502161843 86 99 12.0 21.0 0.00 0.00 0.00 69 1020.9
20260502161339 85 176 11.0 17.0 0.00 0.00 0.00 71 1021.0
20260502160837 86 87 12.0 18.0 0.00 0.00 0.00 69 1021.1
20260502160335 86 181 12.0 21.0 0.00 0.00 0.00 69 1021.0
20260502152310 86 120 11.0 15.0 0.00 0.00 0.00 68 1021.3
20260502151808 86 63 13.0 18.0 0.00 0.00 0.00 66 1021.2
20260502151304 86 243 8.0 18.0 0.00 0.00 0.00 68 1021.1
20260502150802 87 152 15.0 21.0 0.00 0.00 0.00 67 1021.0
20260502150259 87 127 17.0 22.0 0.00 0.00 0.00 67 1021.4
20260502130647 85 67 10.0 18.0 0.00 0.00 0.00 64 1021.1
20260502130144 85 206 10.0 14.0 0.00 0.00 0.00 65 1020.8
20260502123630 84 185 4.0 11.0 0.00 0.00 0.00 66 1020.5
20260502123126 83 49 7.0 14.0 0.00 0.00 0.00 67 1020.6
20260502122623 83 69 5.0 10.0 0.00 0.00 0.00 66 1020.4
20260502122120 83 123 11.0 16.0 0.00 0.00 0.00 67 1020.5
20260502121618 83 96 7.0 11.0 0.00 0.00 0.00 67 1020.5
20260502121115 82 86 5.0 11.0 0.00 0.00 0.00 68 1020.3
20260502120611 82 56 7.0 9.0 0.00 0.00 0.00 69 1020.2
20260502120108 81 80 7.0 11.0 0.00 0.00 0.00 69 1020.2
20260502115607 81 107 12.0 13.0 0.00 0.00 0.00 69 1020.2
20260502115108 81 74 6.0 14.0 0.00 0.00 0.00 69 1020.0
20260502114604 80 82 8.0 14.0 0.00 0.00 0.00 69 1020.1
20260502114101 80 91 12.0 17.0 0.00 0.00 0.00 70 1019.8
20260502113559 80 82 6.0 14.0 0.00 0.00 0.00 70 1019.9
20260502113057 80 98 8.0 16.0 0.00 0.00 0.00 69 1019.7
20260502112555 79 76 7.0 13.0 0.00 0.00 0.00 70 1019.9
20260502112052 79 92 11.0 17.0 0.00 0.00 0.00 70 1019.8
20260502111549 79 83 7.0 14.0 0.00 0.00 0.00 70 1019.7
20260502111047 79 60 11.0 16.0 0.00 0.00 0.00 70 1019.6
20260502110544 79 115 14.0 17.0 0.00 0.00 0.00 70 1019.5
20260502110042 78 90 6.0 13.0 0.00 0.00 0.00 71 1019.5
20260502105539 78 95 15.0 17.0 0.00 0.00 0.00 71 1019.5
20260502105036 78 80 7.0 17.0 0.00 0.00 0.00 72 1019.6
20260502104533 78 63 10.0 14.0 0.00 0.00 0.00 73 1019.3
20260502104031 77 68 8.0 17.0 0.00 0.00 0.00 74 1019.2
20260502103528 77 81 15.0 17.0 0.00 0.00 0.00 74 1019.1
20260502103026 77 82 9.0 17.0 0.00 0.00 0.00 75 1019.3
20260502102522 76 78 6.0 14.0 0.00 0.00 0.00 76 1018.9
20260502102019 76 95 9.0 16.0 0.00 0.00 0.00 77 1018.9
20260502101517 76 60 8.0 15.0 0.00 0.00 0.00 78 1019.0
20260502101015 76 114 10.0 15.0 0.00 0.00 0.00 79 1019.1
20260502100514 75 91 12.0 18.0 0.00 0.00 0.00 79 1018.9
20260502091448 75 72 7.0 14.0 0.00 0.00 0.00 83 1018.6
20260502090945 75 108 9.0 17.0 0.00 0.00 0.00 83 1018.5
20260502090442 75 273 4.0 10.0 0.00 0.00 0.00 83 1018.5
20260502071337 76 80 9.0 14.0 0.00 0.00 0.00 80 1017.8
20260502070835 76 82 8.0 14.0 0.00 0.00 0.00 79 1018.1
20260502070332 76 86 5.0 13.0 0.00 0.00 0.00 79 1017.9
20260502065831 76 299 3.0 11.0 0.00 0.00 0.00 79 1018.1
20260502065329 76 74 6.0 10.0 0.00 0.00 0.00 79 1018.2
20260502064826 76 98 7.0 16.0 0.00 0.00 0.00 79 1018.1
20260502064324 76 82 9.0 11.0 0.00 0.00 0.00 79 1018.3
20260502063821 76 85 5.0 10.0 0.00 0.00 0.00 79 1018.1
20260502063319 76 73 8.0 15.0 0.00 0.00 0.00 79 1018.1
20260502062816 76 64 4.0 14.0 0.00 0.00 0.00 79 1018.3
20260502062313 76 93 11.0 13.0 0.00 0.00 0.00 79 1018.3
20260502061812 76 78 10.0 13.0 0.00 0.00 0.00 79 1018.5
20260502061310 76 86 12.0 14.0 0.00 0.00 0.00 80 1018.3
20260502060805 76 92 6.0 11.0 0.00 0.00 0.00 79 1018.3
20260502060300 76 74 5.0 10.0 0.00 0.00 0.00 79 1018.2
20260502055759 76 112 5.0 9.0 0.00 0.00 0.00 79 1018.4
20260502055256 76 79 9.0 11.0 0.00 0.00 0.00 79 1018.4
20260502054755 76 83 11.0 14.0 0.00 0.00 0.00 79 1018.4
20260502054252 76 100 10.0 14.0 0.00 0.00 0.00 78 1018.4
20260502053750 76 83 9.0 11.0 0.00 0.00 0.00 78 1018.6
20260502053247 77 106 11.0 14.0 0.00 0.00 0.00 77 1018.6
20260502052745 77 103 8.0 14.0 0.00 0.00 0.00 77 1018.4
20260502052243 76 96 8.0 11.0 0.00 0.00 0.00 77 1018.7
20260502051740 77 59 3.0 10.0 0.00 0.00 0.00 77 1018.9
20260502051238 77 76 3.0 9.0 0.00 0.00 0.00 78 1018.9
20260502050734 77 93 5.0 15.0 0.00 0.00 0.00 78 1018.7
20260502050230 76 87 8.0 11.0 0.00 0.00 0.00 79 1018.9
20260502045728 76 112 8.0 9.0 0.00 0.00 0.00 79 1019.0
20260502045225 76 74 6.0 11.0 0.00 0.00 0.00 80 1019.1
20260502044722 76 104 6.0 8.0 0.00 0.00 0.00 80 1019.3
20260502044218 77 36 5.0 9.0 0.00 0.00 0.00 80 1019.3
20260502043715 77 90 8.0 11.0 0.00 0.00 0.00 81 1019.2
20260502043213 76 93 11.0 13.0 0.00 0.00 0.00 81 1019.2
20260502042712 76 30 6.0 10.0 0.00 0.00 0.00 82 1019.3
20260502042210 76 94 5.0 10.0 0.00 0.00 0.00 82 1019.3
20260502041707 77 87 6.0 11.0 0.00 0.00 0.00 82 1019.5
20260502041204 76 74 8.0 10.0 0.00 0.00 0.00 83 1019.6
20260502040701 77 66 6.0 10.0 0.00 0.00 0.00 83 1019.5
20260502040158 77 70 5.0 8.0 0.00 0.00 0.00 83 1019.5
20260502035654 77 76 6.0 15.0 0.00 0.00 0.00 84 1019.6
20260502035151 77 14 2.0 9.0 0.00 0.00 0.00 84 1019.8
20260502034649 77 66 3.0 6.0 0.00 0.00 0.00 84 1019.7
20260502034147 77 72 9.0 11.0 0.00 0.00 0.00 85 1019.7
20260502033644 77 107 6.0 10.0 0.00 0.00 0.00 84 1019.9
20260502033142 77 151 2.0 7.0 0.00 0.00 0.00 84 1019.9
20260502032638 77 66 8.0 11.0 0.00 0.00 0.00 84 1020.0
20260502032134 77 131 4.0 10.0 0.00 0.00 0.00 84 1020.0
20260502031632 78 10 6.0 11.0 0.00 0.00 0.00 85 1020.0
20260502031130 77 68 7.0 11.0 0.00 0.00 0.00 85 1019.9
20260502030629 77 18 4.0 8.0 0.00 0.00 0.00 85 1019.7
20260502030126 78 56 5.0 8.0 0.00 0.00 0.00 85 1019.8
20260502025623 78 38 2.0 7.0 0.00 0.00 0.00 84 1019.7
20260502025121 78 81 5.0 10.0 0.00 0.00 0.00 84 1019.7
20260502024619 78 114 6.0 9.0 0.00 0.00 0.00 84 1019.8
20260502024117 78 66 7.0 9.0 0.00 0.00 0.00 84 1019.5
20260502023615 78 86 6.0 8.0 0.00 0.00 0.00 84 1019.6
20260502023111 78 110 4.0 13.0 0.00 0.00 0.00 84 1019.6
20260502022608 78 125 7.0 17.0 0.00 0.00 0.00 84 1019.5
20260502022106 78 137 3.0 10.0 0.00 0.00 0.00 84 1019.4
20260502021603 78 154 9.0 11.0 0.00 0.00 0.00 84 1019.3
20260502021059 78 106 7.0 11.0 0.00 0.00 0.00 83 1019.2
20260502020557 78 90 11.0 15.0 0.00 0.00 0.00 84 1019.1
20260502020054 78 259 2.0 8.0 0.00 0.00 0.00 83 1019.0
20260502015552 78 197 4.0 18.0 0.00 0.00 0.00 84 1018.9
20260502015048 78 53 7.0 14.0 0.00 0.00 0.00 84 1019.1
20260502014545 78 95 6.0 13.0 0.00 0.00 0.00 85 1018.8
20260502014042 78 75 7.0 8.0 0.00 0.00 0.00 85 1019.1
20260502013537 78 69 8.0 9.0 0.00 0.00 0.00 85 1018.8
20260502013034 78 88 8.0 11.0 0.00 0.00 0.00 85 1018.7
20260502012531 78 86 8.0 11.0 0.00 0.00 0.00 85 1018.8
20260502012029 78 76 6.0 9.0 0.00 0.00 0.00 84 1018.7
20260502011526 78 177 4.0 10.0 0.00 0.00 0.00 84 1018.8
20260502011022 78 86 5.0 11.0 0.00 0.00 0.00 84 1018.5
20260502010520 78 20 2.0 10.0 0.00 0.00 0.00 84 1018.8
20260502010015 78 144 7.0 10.0 0.00 0.00 0.00 84 1018.6
20260502005514 78 82 9.0 11.0 0.00 0.00 0.00 84 1018.5
20260502005011 78 107 8.0 13.0 0.00 0.00 0.00 84 1018.5
20260502004506 78 98 9.0 13.0 0.00 0.00 0.00 84 1018.3
20260502004004 78 126 9.0 9.0 0.00 0.00 0.00 84 1018.3
20260502003501 79 187 11.0 13.0 0.00 0.00 0.00 84 1018.4
20260502002957 79 110 4.0 9.0 0.00 0.00 0.00 83 1018.6
20260502002455 79 122 6.0 10.0 0.00 0.00 0.00 83 1018.4
20260502001952 78 91 7.0 11.0 0.00 0.00 0.00 83 1018.4
20260502001449 79 100 8.0 11.0 0.00 0.00 0.00 84 1018.6
20260502000947 78 92 8.0 13.0 0.00 0.00 0.00 84 1018.4
20260502000446 78 134 9.0 11.0 0.00 0.00 0.00 84 1018.4
20260501235941 78 97 6.0 11.0 0.00 0.00 0.00 84 1018.3
20260501235436 78 157 9.0 11.0 0.00 0.00 0.00 85 1018.2
20260501234932 78 182 6.0 10.0 0.00 0.00 0.00 85 1018.2
20260501234429 78 131 6.0 10.0 0.00 0.00 0.00 85 1018.3
20260501233928 78 102 8.0 9.0 0.00 0.00 0.00 85 1018.2
20260501233425 78 133 8.0 13.0 0.00 0.00 0.00 86 1018.1
20260501232920 78 157 5.0 8.0 0.00 0.00 0.00 86 1017.8
20260501232418 78 165 5.0 10.0 0.00 0.00 0.00 85 1018.1
20260501231915 78 186 4.0 8.0 0.00 0.00 0.00 85 1018.2
20260501231413 79 69 4.0 10.0 0.00 0.00 0.00 85 1017.9
20260501230911 79 138 4.0 7.0 0.00 0.00 0.00 85 1017.7
20260501230410 79 85 6.0 9.0 0.00 0.00 0.00 84 1018.1
20260501225907 79 141 7.0 9.0 0.00 0.00 0.00 84 1017.6
20260501225404 79 118 6.0 9.0 0.00 0.00 0.00 84 1017.8
20260501224900 79 129 4.0 7.0 0.00 0.00 0.00 84 1017.8
20260501224358 79 118 5.0 8.0 0.00 0.00 0.00 83 1017.8
20260501223854 79 121 7.0 9.0 0.00 0.00 0.00 83 1017.8
20260501223350 79 223 3.0 8.0 0.00 0.00 0.00 83 1017.7
20260501222846 79 102 6.0 8.0 0.00 0.00 0.00 83 1017.8
20260501222344 79 116 4.0 6.0 0.00 0.00 0.00 83 1017.9
20260501221840 79 105 6.0 9.0 0.00 0.00 0.00 82 1017.9
20260501221337 79 181 4.0 8.0 0.00 0.00 0.00 82 1017.8
20260501220835 79 109 5.0 8.0 0.00 0.00 0.00 82 1017.8
20260501220333 80 128 7.0 10.0 0.00 0.00 0.00 82 1018.1
20260501215829 80 117 8.0 11.0 0.00 0.00 0.00 81 1017.7
20260501215325 80 154 2.0 10.0 0.00 0.00 0.00 81 1017.5
20260501214821 80 119 5.0 8.0 0.00 0.00 0.00 81 1017.6
20260501214316 80 118 6.0 11.0 0.00 0.00 0.00 80 1017.6
20260501213813 80 139 4.0 8.0 0.00 0.00 0.00 80 1017.5
20260501213309 80 181 5.0 7.0 0.00 0.00 0.00 79 1017.6
20260501212805 80 128 6.0 8.0 0.00 0.00 0.00 79 1017.2
20260501212301 81 118 7.0 10.0 0.00 0.00 0.00 78 1017.4
20260501211759 80 149 5.0 8.0 0.00 0.00 0.00 78 1017.5
20260501211256 81 152 8.0 10.0 0.00 0.00 0.00 77 1017.4
20260501210753 81 96 5.0 8.0 0.00 0.00 0.00 77 1017.5
20260501210249 81 142 5.0 7.0 0.00 0.00 0.00 76 1017.6
20260501205745 81 87 4.0 6.0 0.00 0.00 0.00 76 1017.4
20260501205243 81 131 4.0 7.0 0.00 0.00 0.00 76 1017.3
20260501204740 81 145 2.0 4.0 0.00 0.00 0.00 76 1017.6
20260501204237 81 129 7.0 9.0 0.00 0.00 0.00 75 1017.4
20260501203732 82 132 7.0 9.0 0.00 0.00 0.00 75 1017.4
20260501203230 82 118 7.0 10.0 0.00 0.00 0.00 74 1017.2
20260501202727 82 91 5.0 7.0 0.00 0.00 0.00 74 1017.3
20260501202224 83 134 7.0 9.0 0.00 0.00 0.00 73 1017.4
20260501201720 83 124 8.0 10.0 0.00 0.00 0.00 72 1017.3
20260501201217 83 123 6.0 10.0 0.00 0.00 0.00 72 1017.3
20260501200714 84 137 5.0 9.0 0.00 0.00 0.00 72 1017.3
20260501200211 86 109 5.0 10.0 0.00 0.00 0.00 69 1017.5
20260501195709 85 111 8.0 10.0 0.00 0.00 0.00 69 1017.4
20260501195205 83 123 7.0 11.0 0.00 0.00 0.00 72 1017.5
20260501194700 84 97 9.0 11.0 0.00 0.00 0.00 72 1017.3
20260501194156 84 131 9.0 14.0 0.00 0.00 0.00 68 1017.6
20260501193653 84 140 8.0 9.0 0.00 0.00 0.00 68 1017.4
20260501193152 86 132 6.0 10.0 0.00 0.00 0.00 67 1017.3
20260501192649 85 123 8.0 11.0 0.00 0.00 0.00 66 1017.5
20260501192146 84 141 4.0 11.0 0.00 0.00 0.00 68 1017.4
20260501191643 85 109 9.0 14.0 0.00 0.00 0.00 65 1017.5
20260501191140 87 109 11.0 14.0 0.00 0.00 0.00 64 1017.8
20260501190637 86 125 9.0 13.0 0.00 0.00 0.00 61 1017.6